This is the latest recevied weather packets stored in our database for station/object OK5TVR-5. If no packets are shown the sender has not sent any weather packets the latest 10 day(s).
| Time | Temp. | Humidity | Pressure | Rain* | Wind** | Luminosity | Snow |
|---|---|---|---|---|---|---|---|
| 1788099864 | 27.22° C | 38% | 1006.3 hPa | 0 mm | - | 95 W/m² | - |
| 1788098965 | 26.67° C | 41% | 1006.4 hPa | 0 mm | - | 89 W/m² | - |
| 1788098064 | 26.67° C | 41% | 1006.6 hPa | 0 mm | - | 77 W/m² | - |
| 1788097164 | 27.22° C | 41% | 1006.5 hPa | 0 mm | - | 174 W/m² | - |
| 1788096264 | 25.56° C | 42% | 1006.7 hPa | 0 mm | - | 176 W/m² | - |
| 1788095365 | 26.67° C | 41% | 1006.6 hPa | 0 mm | - | 189 W/m² | - |
| 1788094464 | 27.22° C | 42% | 1006.7 hPa | 0 mm | - | 220 W/m² | - |
| 1788093564 | 25.56° C | 42% | 1007 hPa | 0 mm | - | 89 W/m² | - |
| 1788092665 | 26.67° C | 42% | 1007 hPa | 0 mm | - | 146 W/m² | - |
| 1788091764 | 27.22° C | 38% | 1007 hPa | 0 mm | - | 86 W/m² | - |
| 1788090864 | 25.56° C | 46% | 1007.1 hPa | 0 mm | - | 296 W/m² | - |
| 1788089980 | 25.56° C | 45% | 1007.2 hPa | 0 mm | - | 91 W/m² | - |
| 1788089064 | 26.11° C | 43% | 1007 hPa | 0 mm | - | 280 W/m² | - |
| 1788088164 | 25° C | 46% | 1007.4 hPa | 0 mm | - | 263 W/m² | - |
| 1788087264 | 24.44° C | 49% | 1007.4 hPa | 0 mm | - | 342 W/m² | - |
| 1788086364 | 25.56° C | 46% | 1007.4 hPa | 0 mm | - | 315 W/m² | - |
| 1788085464 | 25° C | 52% | 1007.7 hPa | 0 mm | - | 332 W/m² | - |
| 1788084564 | 24.44° C | 55% | 1007.8 hPa | 0 mm | - | 214 W/m² | - |
| 1788083664 | 23.89° C | 54% | 1007.8 hPa | 0 mm | - | 280 W/m² | - |
| 1788082765 | 23.33° C | 55% | 1008 hPa | 0 mm | - | 178 W/m² | - |
| 1788081864 | 24.44° C | 52% | 1007.8 hPa | 0 mm | - | 243 W/m² | - |
| 1788080964 | 23.33° C | 57% | 1008 hPa | 0 mm | - | 223 W/m² | - |
| 1788080064 | 22.78° C | 57% | 1008.4 hPa | 0 mm | - | 199 W/m² | - |
| 1788079164 | 22.78° C | 57% | 1008.3 hPa | 0 mm | - | 140 W/m² | - |
| 1788078264 | 23.33° C | 57% | 1008.1 hPa | 0 mm | - | 179 W/m² | - |
* Rain latest hour (hover to see other rain measurements)
** Current wind speed in m/s (hover to see current wind gust speed)